Beaver, WV

12:50 PM EDT on September 26, 2016 (GMT -0400)
Raleigh County Memorial

Weather History for KBKW - October, 2010

Change the Weather History Date:

Tuesday, October 12, 2010

  Actual Average Record
Temperature  
Mean Temperature 66 °F 54 °F  
Max Temperature 77 °F 64 °F 88 °F (1913)
Min Temperature 54 °F 44 °F 22 °F (1951)
Degree Days  
Heating Degree Days 0 11  
Month to date heating degree days 113 114  
Since 1 July heating degree days 186 248  
Cooling Degree Days 1 0  
Month to date cooling degree days 2 2  
Year to date cooling degree days 868 552  
Growing Degree Days 15 (Base 50)    
Moisture  
Dew Point 46 °F    
Average Humidity 50    
Maximum Humidity 67    
Minimum Humidity 33    
Precipitation  
Precipitation 0.00 in 0.08 in 1.09 in (1990)
Month to date precipitation 0.39 0.98  
Year to date precipitation 35.55 33.65  
Snow  
Snow 0.00 in - - ()
Month to date snowfall 0.0  
Since 1 September snowfall 0.0  
Snow Depth 0.00 in    
Sea Level Pressure  
Sea Level Pressure 29.89 in    
Wind  
Wind Speed 5 mph (WSW)    
Max Wind Speed 15 mph    
Max Gust Speed 20 mph    
Visibility 10 miles    
Events      
T = Trace of Precipitation, MM = Missing Value Source: NWS Daily Summary

Daily Weather History Graph

Daily Weather History Graph

Search for Another Location

Airport or City:

Trip Planner

Search our weather history database for the weather conditions in past years. The results will help you decide how hot, cold, wet, or windy it might be!

Date:

Astronomy

Oct. 12, 2010 Rise Set
Actual Time 7:30 AM EDT 6:51 PM EDT
Civil Twilight 7:03 AM EDT 7:17 PM EDT
Nautical Twilight 6:33 AM EDT 7:48 PM EDT
Astronomical Twilight 6:02 AM EDT 8:18 PM EDT
Moon 12:55 PM EDT (10/12) 10:32 PM EDT (10/12)
Length of Visible Light 12h 13m
Length of Day
11h 21m
Waxing Crescent, 28% of the Moon is Illuminated
Oct 12
Waxing Crescent
Oct 14
First Quarter
Oct 22
Full
Oct 30
Last Quarter
Nov 6
New

Hourly Weather History & Observations

Time (EDT) Temp. Dew Point Humidity Pressure Visibility Wind Dir Wind Speed Gust Speed Precip Events Conditions
12:51 AM 60.1 °F 43.0 °F 53% 29.88 in 10.0 mi South 5.8 mph - N/A   Clear
1:51 AM 57.0 °F 43.0 °F 59% 29.87 in 10.0 mi South 4.6 mph - N/A   Clear
2:51 AM 57.9 °F 43.0 °F 58% 29.87 in 10.0 mi South 5.8 mph - N/A   Clear
3:51 AM 57.0 °F 43.0 °F 59% 29.87 in 10.0 mi SSW 3.5 mph - N/A   Clear
4:51 AM 55.9 °F 44.1 °F 64% 29.87 in 10.0 mi SSW 3.5 mph - N/A   Scattered Clouds
5:51 AM 55.9 °F 43.0 °F 62% 29.89 in 10.0 mi SSW 5.8 mph - N/A   Partly Cloudy
6:51 AM 57.9 °F 43.0 °F 58% 29.89 in 10.0 mi SSW 4.6 mph - N/A   Scattered Clouds
7:51 AM 57.0 °F 43.0 °F 59% 29.91 in 10.0 mi Calm Calm - N/A   Clear
8:51 AM 61.0 °F 46.0 °F 58% 29.91 in 10.0 mi South 3.5 mph - N/A   Clear
9:51 AM 64.9 °F 46.9 °F 52% 29.91 in 10.0 mi SW 3.5 mph - N/A   Clear
10:51 AM 68.0 °F 48.0 °F 49% 29.91 in 10.0 mi Variable 4.6 mph - N/A   Clear
11:51 AM 73.0 °F 48.0 °F 41% 29.90 in 10.0 mi West 5.8 mph - N/A   Partly Cloudy
12:51 PM 75.0 °F 46.9 °F 37% 29.88 in 10.0 mi WNW 6.9 mph - N/A   Clear
1:51 PM 73.9 °F 45.0 °F 35% 29.88 in 10.0 mi NW 11.5 mph 17.3 mph N/A   Clear
2:51 PM 73.9 °F 45.0 °F 35% 29.86 in 10.0 mi NW 11.5 mph - N/A   Clear
3:51 PM 75.9 °F 45.0 °F 33% 29.86 in 10.0 mi NNW 12.7 mph - N/A   Partly Cloudy
4:51 PM 75.0 °F 45.0 °F 34% 29.86 in 10.0 mi NW 9.2 mph - N/A   Clear
5:51 PM 71.1 °F 46.0 °F 41% 29.88 in 10.0 mi NNW 6.9 mph - N/A   Clear
6:51 PM 68.0 °F 46.9 °F 47% 29.90 in 10.0 mi West 3.5 mph - N/A   Clear
7:51 PM 64.0 °F 48.0 °F 56% 29.92 in 10.0 mi Calm Calm - N/A   Mostly Cloudy
8:51 PM 64.9 °F 48.0 °F 54% 29.92 in 10.0 mi Calm Calm - N/A   Mostly Cloudy
9:51 PM 59.0 °F 48.9 °F 69% 29.93 in 10.0 mi SSW 3.5 mph - N/A   Mostly Cloudy
10:51 PM 64.0 °F 48.9 °F 58% 29.93 in 10.0 mi WNW 9.2 mph - N/A   Mostly Cloudy
11:51 PM 63.0 °F 50.0 °F 63% 29.93 in 10.0 mi WSW 3.5 mph - N/A   Scattered Clouds